Location: Pedholt
(56.0260°N, 10.2097°E)
Time: 01:28:42
(UTC+00:00)

Transit 2A Rocket - Pass Details

Date: 01 August 2021
Orbit: 586 x 916 km, 66.7° (Epoch: 21 September)

Event Time Altitude Azimuth Distance (km) Brightness Sun altitude
Rises 20:44:34 0° 315° (NW) 3,174 10.5 -8.8°
Reaches altitude 10° 20:46:51 10° 317° (NW) 2,298 9.2 -9.0°
Maximum altitude 20:52:10 77° 43° (NE) 840 5.2 -9.4°
Enters shadow 20:57:38 12° 130° (SE) 2,377 6.9 -9.9°
Drops below altitude 10° 20:57:58 10° 130° (SE) 2,500 - -9.9°
Sets 21:00:33 0° 132° (SE) 3,471 - -10.1°
